Weather observations for the past three days for
Utopia Creek, Indian Mountain LRRS Airport
| Date | Time (akdt) | Wind (mph) | Vis. (mi.) | Weather | Sky Cond. | Temperature (ºF) | Relative Humidity | Wind Chill (°F) | Heat Index (°F) | Pressure | Precipitation (in) | ||||||
|---|---|---|---|---|---|---|---|---|---|---|---|---|---|---|---|---|---|
| Air | Dwpt | 6 hour | altimeter (in) | sea level (mb) | 1 hr | 3 hr | 6 hr | ||||||||||
| Max. | Min. | ||||||||||||||||
| 02 | 18:55 | Vrbl 6 | 10.00 | Light Showers Rain | BKN027 | 39.7 | 33.8 | 79% | 36 | 29.77 | 1009.5 | ||||||
| 02 | 17:55 | SW 7 | 10.00 | Light Showers Rain | OVC027 | 41 | 33.8 | 76% | 37 | 29.75 | 1008.7 | ||||||
| 02 | 16:55 | Calm | 10.00 | Light Rain | OVC028 | 39.2 | 35.6 | 87% | 29.73 | 1008.0 | |||||||
| 02 | 15:55 | SW 7 | 10.00 | Light Showers Rain | OVC028 | 39.4 | 34.3 | 38.7 | 34.3 | 82% | 35 | 29.71 | 1007.3 | 0.13 | |||
| 02 | 14:55 | S 1 | 10.00 | Light Rain | OVC023 | 37.4 | 35.6 | 93% | 29.69 | 1006.7 | 0.02 | ||||||
| 02 | 13:55 | Vrbl 5 | 10.00 | Light Rain | OVC011 | 37.4 | 35.6 | 93% | 34 | 29.66 | 1005.8 | 0.02 | |||||
| 02 | 12:55 | SW 1 | 9.00 | Rain | BKN013 | 36 | 34.9 | 96% | 29.64 | 1005.0 | 0.03 | 0.06 | |||||
| 02 | 11:55 | SW 8 G 15 | 10.00 | Rain | OVC009 | 35.6 | 33.8 | 93% | 30 | 29.61 | 1003.9 | 0.03 | |||||
| 02 | 10:55 | SW 9 | 10.00 | Light Rain | OVC010 | 35.6 | 33.8 | 93% | 29 | 29.57 | 1002.5 | 0.01 | |||||
| 02 | 09:55 | S 6 | 10.00 | Light Rain Snow | OVC007 | 35.2 | 34.3 | 34.3 | 32.9 | 97% | 31 | 29.55 | 1001.7 | 0.03 | 0.16 | ||
| 02 | 08:55 | Calm | 3.00 | Light Rain Snow | OVC008 | 33.8 | 33.8 | 100% | 29.53 | 1001.0 | 0.02 | ||||||
| 02 | 07:55 | Calm | 3.00 | Light Rain Snow | OVC013 | 33.8 | 33.8 | 100% | 29.51 | 1000.2 | 0.02 | ||||||
| 02 | 06:55 | Calm | 6.00 | Light Rain Snow | OVC015 | 33.1 | 33.1 | 100% | 29.48 | 999.4 | 0.02 | 0.08 | |||||
| 02 | 05:55 | Calm | 10.00 | Light Rain Snow | OVC018 | 33.8 | 32 | 93% | 29.47 | 998.8 | 0.02 | ||||||
| 02 | 04:55 | Calm | 5.00 | Light Rain Snow | OVC019 | 33.8 | 32 | 93% | 29.45 | 998.0 | 0.03 | ||||||
| 02 | 03:55 | Calm | 6.00 | Light Rain | OVC008 | 33.4 | 33.1 | 44.2 | 34.2 | 99% | 29.43 | 997.5 | 0.03 | 0.06 | |||
| 02 | 02:55 | SW 1 | 8.00 | Rain | OVC011 | 35.6 | 33.8 | 93% | 29.41 | 996.7 | 0.02 | ||||||
| 02 | 01:55 | Calm | 8.00 | Light Rain | BKN015 OVC030 | 37.4 | 33.8 | 87% | 29.38 | 995.9 | 0.02 | ||||||
| 02 | 00:55 | Vrbl 5 | 10.00 | Light Showers Rain | OVC034 | 39.4 | 32.2 | 75% | 37 | 29.36 | 995.0 | ||||||
| 01 | 23:55 | Calm | 10.00 | Overcast | OVC044 | 39.2 | 28.4 | 65% | 29.34 | 994.5 | |||||||
| 01 | 22:55 | S 5 | 10.00 | Overcast | OVC060 | 42.8 | 26.6 | 53% | 41 | 29.33 | 994.0 | ||||||
| 01 | 21:55 | S 5 | 10.00 | Mostly Cloudy | FEW060 BKN085 | 43.3 | 27 | 47.8 | 43.3 | 53% | 41 | 29.33 | 993.8 | ||||
| 01 | 20:55 | SE 3 | 10.00 | Mostly Cloudy | BKN070 BKN120 | 44.6 | 28.4 | 53% | 29.33 | 994.0 | |||||||
| 01 | 19:55 | S 2 | 10.00 | Light Showers Rain | SCT033 OVC055 | 44.6 | 28.4 | 53% | 29.35 | 994.9 | |||||||
| 01 | 18:55 | SE 15 | 10.00 | Overcast | OVC060 | 47.1 | 23.9 | 40% | 42 | 29.36 | 995.2 | ||||||
| 01 | 17:55 | E 9 | 10.00 | Mostly Cloudy | BKN095 | 48.2 | 24.8 | 40% | 45 | 29.37 | 995.5 | ||||||
| 01 | 16:55 | E 14 | 10.00 | Mostly Cloudy | BKN075 | 46.4 | 24.8 | 43% | 41 | 29.4 | 996.5 | ||||||
| 01 | 15:55 | SE 17 | 10.00 | Mostly Cloudy | BKN090 | 45.5 | 24.6 | 46 | 41.4 | 44% | 39 | 29.42 | 997.0 | ||||
| 01 | 14:55 | E 8 | 10.00 | Mostly Cloudy | BKN080 | 46.4 | 24.8 | 43% | 43 | 29.44 | 997.6 | ||||||
| 01 | 13:55 | E 15 G 23 | 10.00 | Mostly Cloudy | BKN080 | 46.4 | 24.8 | 43% | 41 | 29.45 | 998.1 | ||||||
| 01 | 12:55 | SE 20 G 26 | 10.00 | Mostly Cloudy | BKN080 | 44.8 | 24.8 | 45% | 37 | 29.47 | 998.8 | ||||||
| 01 | 11:55 | E 14 | 10.00 | Partly Cloudy | SCT090 | 44.6 | 24.8 | 46% | 39 | 29.5 | 999.6 | ||||||
| 01 | 10:55 | E 13 | 10.00 | Overcast | OVC090 | 42.8 | 26.6 | 53% | 37 | 29.5 | 999.9 | ||||||
| 01 | 09:55 | E 13 | 10.00 | Overcast | OVC085 | 43.3 | 26.2 | 41.4 | 32.5 | 51% | 37 | 29.52 | 1000.5 | 0.05 | |||
| 01 | 08:55 | Vrbl 5 | 10.00 | Mostly Cloudy | BKN075 | 39.2 | 30.2 | 70% | 36 | 29.55 | 1001.5 | ||||||
| 01 | 07:55 | S 5 | 10.00 | Overcast | OVC055 | 35.6 | 32 | 87% | 32 | 29.58 | 1002.9 | ||||||
| 01 | 06:55 | Calm | 10.00 | Overcast | OVC055 | 33.3 | 32.5 | 97% | 29.6 | 1003.5 | 0.01 | 0.04 | |||||
| 01 | 05:55 | Calm | 10.00 | Light Rain | OVC024 | 33.8 | 32 | 93% | 29.62 | 1004.2 | 0.03 | ||||||
| 01 | 04:55 | Calm | 2.00 | Light Snow | OVC018 | 33.8 | 32 | 93% | 29.64 | 1004.8 | 0.01 | ||||||
| 01 | 03:55 | S 5 | 10.00 | Overcast | OVC037 | 38.5 | 24.1 | 41.4 | 38.7 | 56% | 36 | 29.63 | 1004.1 | ||||
| 01 | 02:55 | SE 2 | 10.00 | Overcast | OVC055 | 39.2 | 23 | 52% | 29.63 | 1004.3 | |||||||
| 01 | 01:55 | SE 7 | 10.00 | Overcast | OVC060 | 39.2 | 23 | 52% | 35 | 29.63 | 1004.1 | ||||||
| 01 | 00:55 | Vrbl 5 | 10.00 | Overcast | OVC065 | 39.4 | 22.6 | 51% | 37 | 29.64 | 1004.5 | ||||||
| 30 | 23:55 | Vrbl 5 | 10.00 | Mostly Cloudy | BKN060 BKN070 | 41 | 23 | 49% | 38 | 29.64 | 1004.6 | ||||||
| 30 | 22:55 | E 8 | 10.00 | Overcast | OVC050 | 41 | 21.2 | 45% | 36 | 29.65 | 1005.0 | ||||||
| 30 | 21:55 | SE 9 | 10.00 | Mostly Cloudy | BKN055 | 41 | 21.4 | 44.8 | 41.4 | 46% | 36 | 29.66 | 1005.4 | ||||
| 30 | 20:55 | E 9 | 10.00 | Mostly Cloudy | BKN070 | 41 | 21.2 | 45% | 36 | 29.66 | 1005.6 | ||||||
| 30 | 19:55 | E 14 | 10.00 | Mostly Cloudy | BKN065 | 41 | 21.2 | 45% | 34 | 29.68 | 1006.3 | ||||||
| 30 | 18:55 | E 16 | 10.00 | Mostly Cloudy | BKN065 | 42.3 | 19.4 | 40% | 35 | 29.7 | 1007.1 | ||||||
| 30 | 17:55 | SE 14 G 24 | 10.00 | Mostly Cloudy | FEW060 BKN095 | 42.8 | 19.4 | 39% | 36 | 29.71 | 1007.5 | ||||||
| 30 | 16:55 | SE 13 | 10.00 | A Few Clouds | FEW095 | 44.6 | 21.2 | 39% | 39 | 29.72 | 1007.8 | ||||||
| 30 | 15:55 | SE 14 | 10.00 | A Few Clouds | FEW120 | 44.2 | 20.5 | 44.8 | 37.8 | 39% | 38 | 29.74 | 1008.3 | ||||
| 30 | 14:55 | SE 14 | 10.00 | Fair | CLR | 44.6 | 21.2 | 39% | 39 | 29.75 | 1008.7 | ||||||
| 30 | 13:55 | E 15 | 10.00 | Fair | CLR | 44.6 | 21.2 | 39% | 38 | 29.77 | 1009.2 | ||||||
| 30 | 12:55 | E 15 | 10.00 | Fair | CLR | 43.9 | 21.2 | 41% | 37 | 29.77 | 1009.4 | ||||||
| 30 | 11:55 | E 12 | 10.00 | Fair | CLR | 42.8 | 23 | 46% | 37 | 29.78 | 1009.6 | ||||||
| 30 | 10:55 | Vrbl 7 | 10.00 | Fair | CLR | 41 | 23 | 49% | 37 | 29.79 | 1009.9 | ||||||
| 30 | 09:55 | SE 7 | 10.00 | Fair | CLR | 40.5 | 22.8 | 37.8 | 27.9 | 49% | 36 | 29.8 | 1010.0 | ||||
| 30 | 08:55 | Calm | 10.00 | Fair | CLR | 37.4 | 21.2 | 52% | 29.81 | 1010.5 | |||||||
| 30 | 07:55 | NW 1 | 10.00 | Fair | CLR | 32 | 21.2 | 64% | 29.81 | 1010.9 | |||||||
| 30 | 06:55 | W 1 | 10.00 | Fair | CLR | 29.1 | 21.2 | 72% | 29.82 | 1011.2 | |||||||
| 30 | 05:55 | W 1 | 10.00 | Fair | CLR | 28.4 | 21.2 | 74% | 29.83 | 1011.5 | |||||||
| 30 | 04:55 | W 2 | 10.00 | Fair | CLR | 30.2 | 21.2 | 69% | 29.82 | 1011.4 | |||||||
| 30 | 03:55 | W 2 | 10.00 | Fair | CLR | 30.9 | 21.6 | 43.5 | 30.9 | 68% | 29.83 | 1011.5 | |||||
| 30 | 02:55 | Vrbl 3 | 10.00 | Partly Cloudy | SCT060 | 32 | 21.2 | 64% | 29.83 | 1011.5 | |||||||
| 30 | 01:55 | Calm | 10.00 | Mostly Cloudy | BKN065 | 32 | 23 | 69% | 29.83 | 1011.5 | |||||||
| 30 | 00:55 | W 3 | 10.00 | Mostly Cloudy | BKN065 | 32.9 | 21.9 | 64% | 29.82 | 1011.4 | |||||||
| 29 | 23:55 | W 2 | 10.00 | Fair | CLR | 33.8 | 21.2 | 60% | 29.82 | 1011.2 | |||||||
| 29 | 22:55 | Calm | 10.00 | Partly Cloudy | SCT070 | 35.6 | 23 | 60% | 29.83 | 1011.2 | |||||||
| 29 | 21:55 | Calm | 10.00 | Fair | CLR | 42.6 | 19.4 | 44.4 | 39.6 | 39% | 29.82 | 1010.8 | |||||
| 29 | 20:55 | SE 8 | 10.00 | Mostly Cloudy | BKN060 | 44.6 | 21.2 | 39% | 41 | 29.82 | 1011.0 | ||||||
| 29 | 19:55 | SE 8 | 10.00 | Partly Cloudy | SCT065 | 44.6 | 19.4 | 37% | 41 | 29.83 | 1011.3 | ||||||
| Date | Time (akdt) | Wind (mph) | Vis. (mi.) | Weather | Sky Cond. | Air | Dwpt | Max. | Min. | Relative Humidity | Wind Chill (°F) | Heat Index (°F) | altimeter (in) | sea level (mb) | 1 hr | 3 hr | 6 hr |
| 6 hour | |||||||||||||||||
| Temperature (ºF) | Pressure | Precipitation (in) | |||||||||||||||